COSMOS 494

导读

COSMOS 494是苏联(解体后归属独联体CIS)于1972年6月23日发射的宇宙系列卫星。该系列由苏联从1962年开启命名,涵盖军事、科学等多类卫星,用统一命名模糊任务属性,保密性较强。 这类卫星多数完成任务后已退役,部分成为空间碎片在轨道漂浮,该系列中曾有卫星因失控核动力装置坠毁引发核污染担忧,COSMOS系列见证了早期航天发展历程。

Basic Information
目录编号:
6059
目录名称:
COSMOS 494
国际标识:
1972-043A
轨道中心:
EARTH
卫星名称:
COSMOS 494
卫星全名:
--
卫星状态:
在轨 (已飞行19715 天)
发射日期:
1972-06-23 UTC
国别 :
俄罗斯(独联体) (CIS)
星等 :
--
Orbit Information
数据来源 国际轨道数据 AOE轨道数据
星历时间 2026-06-15T05:50:23+0800
7小时前
查看轨道信息
2026-06-15T03:00:00+0800
10小时前
查看轨道信息
半长轴 7148.112km 7148.108km
偏心率 0.0011174 0.001134
轨道倾角 74.055° 74.057°
近地点辐角 227.652° 227.119°
升交点赤经 86.036° 86.254°
平近点角 132.369° 241.271°
近地点 761.987km 761.865km
远地点 777.963km 778.077km
周期 100.241分钟 100.241分钟
每日圈数 14.365337 14.365349
Detailed Information
使用方式:
暂无
2D Orbit Map
3D Orbit Map
Orbit Altitude Analysis Chart
Orbit Inclination Analysis Chart
Orbit Comprehensive Analysis Chart
View Comprehensive Chart